Hourly Weather Lugovaya

Today, 7 May, Friday

Time Temperature Precipitation Wind Pressure Humidity
00:00 +15°C° 0 mm 1 mps 734 mmHg 64%
01:00 +14°C° 0 mm 1 mps 734 mmHg 66%
02:00 +14°C° 0 mm 1 mps 733 mmHg 67%
03:00 +14°C° 0 mm 1 mps 733 mmHg 69%
04:00 +14°C° 0 mm 1 mps 733 mmHg 70%
05:00 +14°C° 0 mm 1 mps 733 mmHg 70%
06:00 +14°C° 0 mm 1 mps 733 mmHg 69%
07:00 +16°C° 0 mm 2 mps 733 mmHg 65%
08:00 +17°C° 0 mm 2 mps 733 mmHg 61%
09:00 +19°C° 0 mm 3 mps 733 mmHg 57%
10:00 +19°C° 0.1 mm 3 mps 732 mmHg 56%
11:00 +20°C° 0.1 mm 4 mps 732 mmHg 56%
12:00 +20°C° 0.1 mm 4 mps 732 mmHg 56%
13:00 +21°C° 0 mm 5 mps 732 mmHg 53%
14:00 +21°C° 0 mm 5 mps 733 mmHg 51%
15:00 +22°C° 0 mm 5 mps 733 mmHg 48%
16:00 +21°C° 0.4 mm 5 mps 733 mmHg 54%
17:00 +19°C° 0.4 mm 5 mps 734 mmHg 61%
18:00 +18°C° 0.4 mm 4 mps 735 mmHg 67%
19:00 +17°C° 0.7 mm 4 mps 735 mmHg 68%
20:00 +15°C° 0.7 mm 4 mps 736 mmHg 68%
21:00 +14°C° 0.7 mm 3 mps 737 mmHg 68%
22:00 +14°C° 0 mm 4 mps 738 mmHg 63%
23:00 +13°C° 0 mm 4 mps 739 mmHg 58%

Tomorrow, 8 May, Saturday

Time Temperature Precipitation Wind Pressure Humidity
00:00 +12°C° 0 mm 5 mps 739 mmHg 54%
01:00 +12°C° 0 mm 4 mps 740 mmHg 56%
02:00 +11°C° 0 mm 3 mps 740 mmHg 58%
03:00 +10°C° 0 mm 3 mps 740 mmHg 61%
04:00 +10°C° 0 mm 3 mps 741 mmHg 60%
05:00 +11°C° 0 mm 3 mps 741 mmHg 59%
06:00 +11°C° 0 mm 3 mps 741 mmHg 58%
07:00 +13°C° 0 mm 4 mps 741 mmHg 52%
08:00 +14°C° 0 mm 4 mps 741 mmHg 45%
09:00 +15°C° 0 mm 5 mps 741 mmHg 39%
10:00 +16°C° 0 mm 5 mps 740 mmHg 36%
11:00 +17°C° 0 mm 5 mps 740 mmHg 32%
12:00 +19°C° 0 mm 5 mps 740 mmHg 29%
13:00 +19°C° 0 mm 5 mps 740 mmHg 29%
14:00 +20°C° 0 mm 6 mps 739 mmHg 28%
15:00 +20°C° 0 mm 7 mps 739 mmHg 28%
16:00 +19°C° 0 mm 6 mps 739 mmHg 31%
17:00 +19°C° 0 mm 6 mps 739 mmHg 34%
18:00 +17°C° 0 mm 6 mps 739 mmHg 37%
19:00 +16°C° 0 mm 6 mps 739 mmHg 41%
20:00 +15°C° 0 mm 6 mps 740 mmHg 45%
21:00 +14°C° 0 mm 5 mps 740 mmHg 49%
22:00 +13°C° 0 mm 5 mps 739 mmHg 51%
23:00 +13°C° 0 mm 5 mps 739 mmHg 53%

Day after tomorrow, 9 May, Sunday

Time Temperature Precipitation Wind Pressure Humidity
00:00 +13°C° 0 mm 5 mps 739 mmHg 55%
01:00 +13°C° 0.2 mm 5 mps 739 mmHg 58%
02:00 +12°C° 0.2 mm 5 mps 738 mmHg 62%
03:00 +12°C° 0.2 mm 5 mps 738 mmHg 65%
04:00 +12°C° 0.2 mm 5 mps 738 mmHg 66%
05:00 +12°C° 0.2 mm 5 mps 738 mmHg 67%
06:00 +11°C° 0.2 mm 6 mps 738 mmHg 68%
07:00 +10°C° 0.3 mm 5 mps 739 mmHg 72%
08:00 +9°C° 0.3 mm 5 mps 739 mmHg 75%
09:00 +7°C° 0.3 mm 5 mps 739 mmHg 79%
10:00 +8°C° 0 mm 5 mps 740 mmHg 72%
11:00 +8°C° 0 mm 5 mps 740 mmHg 65%
12:00 +8°C° 0 mm 6 mps 740 mmHg 59%
13:00 +9°C° 0 mm 6 mps 740 mmHg 51%
14:00 +10°C° 0 mm 6 mps 740 mmHg 44%
15:00 +11°C° 0 mm 6 mps 740 mmHg 37%
16:00 +12°C° 0 mm 5 mps 741 mmHg 37%
17:00 +12°C° 0 mm 5 mps 741 mmHg 37%
18:00 +11°C° 0 mm 4 mps 741 mmHg 37%
19:00 +10°C° 0 mm 3 mps 742 mmHg 43%
20:00 +9°C° 0 mm 3 mps 742 mmHg 49%
21:00 +8°C° 0 mm 2 mps 743 mmHg 55%
22:00 +7°C° 0 mm 2 mps 743 mmHg 57%
23:00 +7°C° 0 mm 1 mps 743 mmHg 59%

10 May, Monday

Time Temperature Precipitation Wind Pressure Humidity
00:00 +7°C° 0 mm 1 mps 743 mmHg 61%
01:00 +6°C° 0 mm 1 mps 743 mmHg 64%
02:00 +6°C° 0 mm 1 mps 743 mmHg 66%
03:00 +5°C° 0 mm 1 mps 743 mmHg 69%
04:00 +6°C° 0 mm 1 mps 743 mmHg 68%
05:00 +5°C° 0 mm 2 mps 743 mmHg 68%
06:00 +6°C° 0 mm 2 mps 743 mmHg 68%
07:00 +7°C° 0 mm 2 mps 743 mmHg 63%
08:00 +8°C° 0 mm 2 mps 743 mmHg 58%
09:00 +9°C° 0 mm 3 mps 743 mmHg 53%
10:00 +10°C° 0 mm 3 mps 742 mmHg 49%
11:00 +11°C° 0 mm 3 mps 742 mmHg 45%
12:00 +13°C° 0 mm 4 mps 741 mmHg 41%
13:00 +13°C° 0 mm 4 mps 741 mmHg 39%
14:00 +14°C° 0 mm 4 mps 741 mmHg 38%
15:00 +15°C° 0 mm 4 mps 740 mmHg 36%
16:00 +14°C° 0 mm 4 mps 740 mmHg 37%
17:00 +14°C° 0 mm 4 mps 739 mmHg 39%
18:00 +14°C° 0 mm 4 mps 739 mmHg 40%
19:00 +13°C° 0 mm 4 mps 739 mmHg 45%
20:00 +12°C° 0 mm 4 mps 739 mmHg 49%
21:00 +10°C° 0 mm 5 mps 738 mmHg 54%
22:00 +10°C° 0 mm 4 mps 738 mmHg 56%
23:00 +9°C° 0 mm 3 mps 738 mmHg 58%

11 May, Tuesday

Time Temperature Precipitation Wind Pressure Humidity
00:00 +9°C° 0 mm 2 mps 737 mmHg 61%
01:00 +8°C° 0 mm 3 mps 737 mmHg 63%
02:00 +8°C° 0 mm 3 mps 737 mmHg 65%
03:00 +7°C° 0 mm 3 mps 736 mmHg 67%
04:00 +7°C° 0 mm 3 mps 736 mmHg 65%
05:00 +8°C° 0 mm 3 mps 736 mmHg 63%
06:00 +8°C° 0 mm 3 mps 736 mmHg 61%
07:00 +9°C° 0 mm 3 mps 736 mmHg 56%
08:00 +10°C° 0 mm 3 mps 736 mmHg 51%
09:00 +11°C° 0 mm 3 mps 736 mmHg 46%
10:00 +12°C° 0 mm 3 mps 736 mmHg 43%
11:00 +13°C° 0 mm 3 mps 736 mmHg 41%
12:00 +16°C° 0 mm 3 mps 736 mmHg 38%
13:00 +16°C° 0 mm 3 mps 736 mmHg 36%
14:00 +17°C° 0 mm 3 mps 735 mmHg 34%
15:00 +17°C° 0 mm 2 mps 735 mmHg 32%
16:00 +17°C° 0 mm 2 mps 735 mmHg 33%
17:00 +17°C° 0 mm 2 mps 735 mmHg 33%
18:00 +17°C° 0 mm 2 mps 736 mmHg 34%
19:00 +14°C° 0 mm 3 mps 736 mmHg 43%
20:00 +13°C° 0 mm 3 mps 736 mmHg 51%
21:00 +11°C° 0 mm 4 mps 737 mmHg 60%
22:00 +10°C° 0 mm 3 mps 737 mmHg 63%
23:00 +9°C° 0 mm 3 mps 737 mmHg 65%

12 May, Wednesday

Time Temperature Precipitation Wind Pressure Humidity
00:00 +9°C° 0 mm 3 mps 737 mmHg 68%
01:00 +8°C° 0 mm 3 mps 737 mmHg 68%
02:00 +8°C° 0 mm 3 mps 737 mmHg 69%
03:00 +7°C° 0 mm 3 mps 737 mmHg 69%
04:00 +8°C° 0 mm 3 mps 737 mmHg 67%
05:00 +7°C° 0 mm 4 mps 738 mmHg 64%
06:00 +7°C° 0 mm 4 mps 738 mmHg 62%
07:00 +8°C° 0 mm 4 mps 738 mmHg 58%
08:00 +10°C° 0 mm 4 mps 738 mmHg 55%
09:00 +10°C° 0 mm 4 mps 738 mmHg 51%
10:00 +11°C° 0 mm 4 mps 738 mmHg 48%
11:00 +12°C° 0 mm 5 mps 738 mmHg 45%
12:00 +13°C° 0 mm 5 mps 738 mmHg 41%
13:00 +13°C° 0 mm 5 mps 738 mmHg 40%
14:00 +14°C° 0 mm 5 mps 738 mmHg 39%
15:00 +14°C° 0 mm 5 mps 738 mmHg 39%
16:00 +14°C° 0 mm 5 mps 738 mmHg 39%
17:00 +13°C° 0 mm 5 mps 738 mmHg 39%
18:00 +13°C° 0 mm 5 mps 738 mmHg 40%
19:00 +12°C° 0 mm 4 mps 739 mmHg 43%
20:00 +10°C° 0 mm 3 mps 739 mmHg 47%
21:00 +9°C° 0 mm 3 mps 740 mmHg 51%
22:00 +8°C° 0 mm 2 mps 740 mmHg 52%
23:00 +8°C° 0 mm 2 mps 740 mmHg 53%
Show more

We Need Your Consent

Meteoprog and our Service Providers may store and access personal data such as cookies, device identifiers or other similar technologies on your device and process such data to personalise content and ads, as well as provide social media features and to analyse the traffic.

  • Store and/or access information on your device

    Cookies, device identifiers or other information can be stored or accessed on your device for the purposes indicated above.

  • Personalised ads and content, ad and content measurement, audience insights, and products development

    Ads and content can be personalised based on a profile. More data can be added to better personalise ads and content. Ad and content performance can be measured. Insights about the audience who saw the ads and content can be derived. Such data can be used to develop or improve user’s experience, systems and software.

By clicking ‘I Agree’ you will allow the use of indicated cookies, device identifiers, web beacons or other similar technologies. Your settings can be changed in the browser on your device.

For certain purposes, legitimate interests may be relied on, rather than consent. You can read more about this in our Privacy and Cookie Policy.